Theta_e
324 323 326 326 325 323 323 323 324 324 325 325 324 324 323 322 322 322 321 320 320 319 321 325 325 325 324 325 325 325 319 316 316 317 315 317 319 321 326 330 328 329 330 339
324 325 324 324 323 322 323 323 324 325 324 324 324 323 322 322 323 322 321 320 319 319 322 325 325 325 324 324 324 324 324 320 316 316 315 318 313 316 328 328 332 335 331 331
323 323 323 323 322 322 323 324 324 323 323 322 321 322 322 322 322 321 320 319 319 320 321 323 325 325 324 323 323 322 322 320 320 319 316 315 314 314 316 328 330 332 339 336
322 323 323 323 323 322 323 323 321 321 321 321 321 322 323 323 323 322 320 320 319 320 321 321 325 324 323 323 321 321 321 321 322 321 320 317 317 320 316 313 312 324 333 337
323 323 323 323 322 322 322 320 320 320 321 322 322 323 323 324 321 321 321 320 320 320 321 323 323 322 322 322 321 320 321 322 322 321 321 320 318 315 314 313 313 311 318 331
324 323 323 322 321 320 320 321 321 321 323 326 323 323 322 322 322 321 321 320 319 319 320 321 322 322 322 321 320 320 321 321 321 320 319 319 319 318 315 312 312 314 311 317
323 323 323 322 322 321 321 321 326 323 326 324 322 322 322 322 321 322 321 319 319 319 319 321 321 321 321 321 320 320 320 320 320 319 318 318 318 318 316 317 320 316 317 311
323 323 322 322 321 320 320 320 324 325 326 323 321 320 319 322 320 321 321 321 321 322 322 319 319 319 319 319 320 320 320 319 319 317 317 316 315 316 316 317 320 320 319 313
322 321 321 321 320 319 319 320 320 323 322 323 322 321 321 322 321 320 320 320 321 321 321 319 317 318 318 317 319 318 319 319 317 316 315 315 315 316 317 316 316 317 317 316
321 323 321 321 319 319 320 321 323 325 325 324 321 322 321 322 321 320 319 319 320 321 319 319 317 316 315 316 316 317 317 317 316 315 315 315 315 315 316 316 316 317 318 318
319 322 321 321 321 320 319 320 321 323 322 326 325 320 321 322 321 321 319 319 319 319 318 316 314 315 315 314 315 316 315 316 315 314 314 314 315 315 314 314 314 315 316 318
319 321 322 320 319 319 319 319 320 327 323 324 325 324 320 320 319 318 318 318 317 317 318 315 315 314 315 316 314 314 314 313 313 313 313 313 313 313 313 313 314 316 319 318
320 322 324 320 320 320 320 320 320 322 323 324 323 321 320 319 316 315 316 317 316 317 315 314 314 315 315 314 313 312 312 312 313 313 312 312 312 311 311 310 311 312 314 315
316 318 319 322 321 320 319 318 317 320 324 320 321 320 318 317 317 316 315 316 315 314 314 314 314 313 313 313 313 312 311 311 311 311 311 310 310 309 308 308 309 310 312 315
319 321 321 320 318 317 318 317 316 317 317 320 317 315 315 315 316 315 315 313 312 312 313 313 313 311 311 311 311 310 310 309 309 309 308 308 307 307 306 307 308 310 313 316
320 321 320 319 318 318 316 316 317 317 316 315 315 314 316 315 314 314 313 312 312 312 312 311 311 311 310 309 309 308 308 307 306 306 306 305 306 306 306 306 308 311 314 317
319 320 320 321 318 317 319 318 317 317 316 317 318 316 315 315 314 313 312 311 311 310 309 310 309 309 308 307 307 306 305 305 305 304 304 304 304 305 305 306 308 312 315 317
321 320 319 318 317 319 317 317 316 316 316 316 317 314 313 313 312 311 310 310 310 310 309 309 308 307 307 306 306 305 305 305 305 304 304 304 303 303 305 307 310 313 316 318
319 319 320 319 319 317 316 317 318 318 316 316 314 314 312 312 311 310 309 309 309 308 307 306 306 305 305 304 304 304 304 304 304 303 303 303 302 303 305 308 311 314 317 321
317 318 321 320 319 318 317 316 314 313 318 314 313 314 313 312 313 312 309 308 307 307 306 305 303 303 303 303 303 303 303 303 302 302 302 301 302 304 306 310 312 316 320 320
317 316 315 316 318 315 316 314 313 316 317 314 313 313 312 312 311 309 307 306 305 304 303 303 303 303 302 301 301 301 301 301 301 301 301 302 304 305 309 311 313 317 318 319
316 319 319 317 316 316 314 315 316 315 314 313 313 312 311 311 309 307 305 304 303 303 302 303 302 301 301 301 301 301 301 301 301 301 302 303 306 309 311 312 315 317 318 318
317 316 317 316 316 315 313 314 313 313 313 312 312 311 310 308 306 304 303 302 301 302 301 300 300 300 300 300 300 300 301 301 301 302 304 307 308 311 312 314 316 316 318 317
313 313 317 316 314 314 313 312 313 312 312 313 312 310 308 306 304 302 301 301 301 300 300 299 299 299 301 303 302 302 303 302 302 303 306 307 310 313 315 316 315 318 317 318
313 314 315 315 313 313 312 313 312 312 312 312 310 308 306 304 302 301 300 300 300 299 299 299 300 301 304 305 305 306 305 304 303 304 306 308 311 313 315 314 316 317 317 317
314 315 316 316 313 314 313 313 312 312 311 310 308 305 303 302 300 300 300 300 299 299 300 302 304 304 306 307 307 307 307 306 305 305 306 309 311 314 314 313 315 315 315 316
Wind_Speed
4 9 11 12 9 10 12 14 15 16 15 15 15 16 16 20 23 23 22 20 19 6 5 8 8 5 3 4 4 11 11 12 13 15 16 17 19 18 20 18 23 28 33 23
11 12 8 7 8 12 14 14 17 16 16 15 16 20 21 21 24 27 20 11 7 10 8 9 9 8 8 9 7 6 13 13 12 14 15 16 18 17 16 17 20 16 32 38
12 15 15 6 11 13 14 16 16 16 18 18 20 23 20 18 21 12 6 5 8 8 7 15 16 13 13 10 9 8 9 15 14 16 17 19 21 19 19 16 15 16 14 27
8 16 5 9 12 14 14 16 17 17 17 16 17 18 20 20 19 11 15 17 15 18 16 11 14 17 18 15 12 12 8 6 9 21 22 19 18 19 21 23 24 26 26 25
16 15 13 10 11 11 14 15 15 18 19 20 20 13 18 19 3 11 12 9 7 4 6 13 21 21 17 14 13 9 7 7 10 14 21 25 24 23 24 24 26 26 27 35
17 12 11 5 10 12 8 14 18 19 17 15 20 14 15 10 14 18 13 9 6 8 15 17 15 9 10 13 14 11 4 12 10 16 21 23 26 29 28 28 26 26 27 26
18 11 7 4 8 13 11 14 9 6 9 13 19 19 14 20 20 15 13 14 14 18 13 9 10 15 14 13 14 9 7 12 14 15 19 25 25 31 32 24 26 27 28 26
9 8 14 11 7 11 14 13 8 16 13 17 19 13 15 13 23 20 30 35 24 21 21 19 23 13 5 19 7 5 11 15 16 19 18 23 30 30 30 27 26 30 32 32
8 7 24 17 11 9 11 11 14 10 14 15 14 20 19 10 16 24 30 31 32 27 22 23 26 18 13 18 34 17 17 16 16 18 24 25 28 26 26 30 34 32 32 31
6 15 12 15 8 14 18 14 10 6 7 16 16 21 16 12 16 3 6 17 10 12 22 23 29 23 19 19 24 23 17 18 20 22 21 25 30 30 29 30 32 33 34 35
12 9 12 15 16 18 16 13 12 13 11 11 13 12 16 23 24 19 19 25 21 19 15 13 20 19 13 12 20 25 25 23 21 24 27 28 26 26 31 33 34 34 33 35
10 6 11 18 23 20 14 12 13 4 12 14 14 19 19 19 23 20 24 17 15 18 14 23 26 24 25 19 24 21 21 23 24 26 24 25 27 28 31 31 31 31 32 34
8 4 8 9 8 15 18 16 19 15 12 18 16 15 19 25 20 16 16 20 18 13 12 22 22 24 28 29 23 21 22 23 23 22 25 28 31 35 39 37 36 40 39 37
3 7 10 11 18 19 20 23 23 21 8 15 15 19 21 14 18 25 23 16 22 28 31 32 30 31 29 32 24 26 25 24 23 24 27 32 34 36 40 39 39 39 33 32
4 11 15 17 21 23 24 25 24 19 20 15 17 18 19 20 21 27 26 30 32 34 35 35 35 30 29 30 29 27 28 27 28 29 30 33 36 37 37 36 36 30 29 27
9 14 18 21 23 21 23 23 16 14 12 10 16 19 20 28 29 27 31 33 35 36 38 39 36 33 35 36 38 38 34 34 33 34 36 36 34 34 34 34 31 27 26 25
12 11 13 20 22 22 19 10 16 14 17 15 15 19 22 20 25 27 28 36 37 37 38 38 39 40 40 37 35 36 38 42 39 38 37 33 32 32 35 31 27 25 25 23
9 10 10 14 18 14 7 12 11 9 14 16 14 15 21 24 32 34 34 34 33 36 38 39 40 37 35 36 35 35 36 35 33 33 33 33 32 34 31 27 22 26 23 24
12 7 10 8 11 17 9 6 8 10 16 8 13 20 29 33 35 32 26 32 38 39 37 38 38 40 42 39 35 35 33 32 29 32 32 32 30 30 28 23 23 21 20 17
5 8 7 11 17 13 9 17 16 19 10 15 28 23 24 30 15 17 41 41 39 35 37 38 45 41 39 37 34 32 34 33 38 32 28 29 27 27 24 19 19 14 14 15
11 12 13 12 15 7 7 20 18 7 10 30 27 29 30 19 29 40 42 42 38 40 42 40 36 36 35 37 34 35 34 34 31 30 24 22 25 21 16 15 15 17 9 9
13 6 9 7 11 6 30 19 5 11 26 29 30 32 32 36 35 39 43 42 42 40 40 34 41 40 37 33 32 34 34 30 28 22 20 19 13 12 11 13 18 11 9 5
4 7 5 6 7 20 22 19 24 24 28 30 33 33 35 32 38 36 42 41 40 38 41 42 40 40 36 32 28 30 29 24 18 15 13 10 9 8 11 14 7 7 4 2
14 15 7 11 9 17 21 25 28 30 32 32 30 34 31 33 36 39 40 41 41 42 41 41 39 39 36 28 25 22 19 15 13 10 8 8 7 5 8 8 5 6 4 6
10 12 5 11 15 27 18 28 31 32 32 29 32 29 30 36 36 38 41 41 43 44 44 42 37 32 30 26 22 17 15 12 12 11 11 9 6 9 10 4 8 3 5 7
6 4 4 8 20 17 25 28 29 28 32 30 28 31 36 36 38 39 40 42 44 45 42 35 32 33 28 23 19 13 10 11 12 12 10 8 9 8 6 3 7 7 6 10
Wind_Direction
312 306 296 8 15 334 310 298 297 297 293 290 290 292 285 285 282 272 271 270 268 278 158 168 146 156 194 245 303 317 325 326 334 338 348 344 339 317 270 262 263 261 252 256
271 255 15 348 320 305 292 282 281 291 310 316 306 298 294 279 267 262 249 262 300 275 188 175 186 195 216 241 257 296 317 322 333 325 334 333 332 334 326 313 271 277 258 255
318 306 325 356 306 290 283 290 300 314 315 297 286 279 285 301 297 258 194 244 274 285 255 209 185 202 218 223 234 247 277 311 336 321 326 322 323 320 313 296 292 275 287 262
309 288 325 284 280 302 300 336 332 314 306 295 319 296 287 276 260 247 204 216 225 234 218 227 192 209 214 218 228 257 263 296 316 316 324 321 327 320 310 308 311 291 262 258
290 305 331 310 304 355 306 320 309 294 282 281 279 270 282 289 246 264 246 246 260 261 261 222 228 239 232 212 226 230 266 293 310 318 322 319 314 308 311 310 303 300 293 268
269 257 254 241 327 301 275 284 300 294 281 269 270 267 280 304 314 309 289 250 255 282 256 247 234 226 235 226 221 200 342 304 294 313 316 309 309 309 307 307 307 299 301 293
327 296 93 47 320 317 319 327 314 301 318 296 317 323 318 323 309 349 12 1 330 313 299 338 300 285 265 279 252 256 259 286 301 311 308 305 303 303 307 306 299 298 292 287
315 315 25 14 303 310 297 288 276 293 302 304 316 293 293 10 12 2 5 3 12 9 13 14 6 351 353 334 315 298 294 295 299 308 303 300 305 304 303 302 292 280 280 281
321 297 334 322 314 336 313 299 294 302 288 284 286 289 286 47 48 3 352 337 339 342 349 355 349 325 342 329 311 327 311 305 299 295 296 300 303 302 295 293 295 295 292 283
300 305 303 294 309 270 259 251 280 276 289 275 285 304 294 324 1 90 333 286 316 324 340 339 325 315 312 293 309 314 321 306 294 297 300 302 297 297 298 294 291 292 289 289
311 280 288 299 285 303 318 302 264 272 281 287 295 284 324 330 334 336 345 352 343 331 333 343 333 325 318 306 310 301 301 297 299 298 300 301 297 296 293 293 293 289 287 289
323 296 294 300 293 282 266 300 302 4 296 285 296 281 304 324 328 348 351 0 354 312 313 327 310 316 302 293 302 300 291 305 303 297 298 297 298 302 298 294 293 290 285 284
354 317 316 309 319 350 320 304 300 291 277 265 285 298 328 311 26 340 331 336 333 303 321 312 318 321 313 327 306 301 295 299 298 298 296 292 292 289 290 287 286 282 275 278
182 264 267 278 292 317 305 295 292 288 294 292 289 308 295 347 352 340 350 349 334 325 326 324 326 318 318 316 315 323 317 309 302 296 292 291 289 287 286 287 284 284 280 273
220 272 280 296 301 294 301 307 310 337 323 325 329 321 334 349 340 334 337 335 329 320 317 315 314 317 316 315 320 317 310 308 299 293 291 289 291 291 290 290 289 284 280 274
311 296 304 296 295 309 303 310 341 330 311 300 337 321 357 340 337 335 335 330 320 314 313 308 312 317 315 310 309 309 306 304 301 296 293 290 289 291 292 294 291 285 279 277
289 289 305 296 303 308 304 346 321 333 340 354 326 339 352 336 325 323 327 322 312 312 314 315 314 310 308 306 302 300 298 299 294 291 292 290 289 286 294 291 287 288 279 282
271 299 294 301 306 300 40 30 4 332 321 322 355 346 316 317 323 321 319 313 316 311 309 308 307 306 306 305 302 300 295 291 287 287 287 288 287 289 288 285 283 284 285 289
216 268 285 292 304 293 2 16 334 332 309 30 335 333 325 322 315 311 321 323 311 307 305 305 304 303 302 300 299 297 292 288 287 288 284 281 282 284 279 273 286 281 294 281
271 241 258 281 284 306 5 352 332 306 292 348 333 325 322 321 310 316 326 323 319 313 308 307 304 303 302 300 299 294 292 288 288 288 285 283 281 273 268 270 272 281 268 279
319 322 301 312 308 295 36 345 352 359 311 319 320 317 321 315 314 312 321 318 314 310 306 307 304 303 299 299 297 293 291 288 288 290 287 275 269 266 268 270 278 289 287 287
306 292 298 313 304 308 348 356 357 303 309 317 321 322 314 317 318 319 319 316 316 311 310 308 307 306 305 302 298 295 292 290 291 285 275 270 254 264 264 265 293 269 278 282
319 325 301 291 282 304 335 333 331 326 320 318 317 316 324 323 322 321 318 318 316 314 310 313 311 308 308 304 296 292 290 293 290 278 271 248 274 274 271 279 223 258 241 217
305 313 302 317 318 329 331 326 324 319 316 315 320 328 331 324 324 321 320 317 316 319 317 317 315 313 313 314 310 301 298 289 271 266 251 262 268 263 281 193 225 232 181 164
327 311 286 304 328 328 326 324 317 316 321 329 332 337 333 328 324 322 318 318 320 321 322 321 317 316 315 320 314 308 305 283 248 241 246 227 269 288 189 197 193 212 156 174
342 335 324 307 327 324 318 321 313 326 332 331 338 338 332 331 327 326 321 325 324 323 326 328 328 325 322 323 316 294 295 261 235 223 228 225 228 237 232 234 187 168 157 164